Regional Weather Roundup
Issued by NWS

Home | Current Version | Previous Version | Text Only | Print | Product List | Glossary Off
Versions: 1 2 3 4 5 6 7 8 9 10 11 12 13 14 15 16 17 18 19 20 21 22 23 24 25 26 27 28 29 30 31 32 33 34 35 36 37 38 39 40 41 42 43 44 45 46 47 48 49 50

000
ASUS43 KMPX 280310
RWRMN
WEATHER ROUNDUP FOR MINNESOTA
NATIONAL WEATHER SERVICE TWIN CITIES/CHANHASSEN MN
1000 PM CDT MON APR 27 2015


NOTE: "FAIR" INDICATES FEW OR NO CLOUDS BELOW 12,000 FEET WITH NO
SIGNIFICANT WEATHER AND/OR OBSTRUCTIONS TO VISIBILITY. N/A MEANS
CURRENT SKY AND/OR WEATHER CONDITIONS ARE NOT AVAILABLE.

MNZ060>063-068>070-280400-
   Twin Cities Metro

CITY           SKY/WX    TMP DP  RH WIND       PRES   REMARKS
TWIN CITIES    MOCLDY    60  27  28 CALM      30.14S
ST PAUL        CLEAR     54  31  41 CALM      30.15R
CRYSTAL        CLEAR     53  27  36 CALM      30.14R
BLAINE         CLEAR     54  25  32 CALM      30.14S
LAKEVILLE      CLEAR     46  32  57 CALM      30.15R
EDEN PRAIRIE   PTCLDY    58  25  28 CALM      30.14R
SOUTH ST PAUL  CLEAR     55  32  41 CALM      30.14R
LAKE ELMO      FAIR      46  32  57 CALM      30.15S
$$
MNZ001>005-007-008-013>017-022>024-027-028-280400-
   Northwest Minnesota

CITY           SKY/WX    TMP DP  RH WIND       PRES   REMARKS
BEMIDJI        PTCLDY    58  38  47 N9        30.16R
HALLOCK        DRIZZLE   46  43  87 N10       30.25S
ROSEAU         CLOUDY    52  45  76 N10       30.21S
WARROAD        CLOUDY    50  45  81 NW9       30.21S
THIEF RVR FALL CLOUDY    50  41  71 NW15      30.22R
CROOKSTON      CLOUDY    48  41  76 N18       30.25R
FOSSTON        CLOUDY    54  39  58 N20G26    30.19S
DETROIT LAKES  PTCLDY    59  36  41 NW16      30.18R
MOORHEAD       MOCLDY    55  39  54 N23       30.21R
PARK RAPIDS    PTCLDY    55  28  35 CALM      30.14R
MAHNOMEN       MOCLDY    56  40  55 N13       30.18R
$$
MNZ006-009>011-018-025>026-280400-
   North Central Minnesota

CITY           SKY/WX    TMP DP  RH WIND       PRES   REMARKS
BAUDETTE       PTCLDY    50  41  71 N14       30.18R
FLAG ISLAND    CLOUDY    48  41  76 NW15      30.20R
INTL FALLS     PTCLDY    45  33  63 CALM      30.14R
WASKISH        PTCLDY    57  43  58 CALM      30.16S
BIG FORK       PTCLDY    46  28  49 CALM      30.15R
LONGVILLE      PTCLDY    48  34  57 CALM      30.14S
GRAND RAPIDS   CLEAR     50  28  43 CALM      30.13F
CRANE LAKE     PTCLDY    39  32  75 CALM      30.16S
ORR            PTCLDY    48  25  40 CALM      30.12S
COOK           PTCLDY    45  30  57 CALM      30.15R
WALKER         FAIR      54  28  36 CALM      30.14S
$$
MNZ012-019>021-037-280400-
   Northeast Minnesota

CITY           SKY/WX    TMP DP  RH WIND       PRES   REMARKS
DULUTH         PTCLDY    49  27  42 E7        30.15R
ELY            PTCLDY    43  30  61 CALM      30.15S
HIBBING        PTCLDY    46  25  43 CALM      30.13S
EVELETH        FAIR      43  28  56 CALM      30.15S
DULUTH HARBOR  PTCLDY    39  36  87 CALM      30.17R
TWO HARBORS    PTCLDY    46  34  61 N3        30.15R
SILVER BAY     PTCLDY    39  28  65 CALM      30.15S
GRAND MARAIS     N/A     37  30  75 N3        30.17S
G MARAIS ARPRT CLEAR     39  25  56 SW3       30.17S
$$
MNZ029>031-032-039>041-046>048-054>057-064-280400-
   West Central Minnesota

CITY           SKY/WX    TMP DP  RH WIND       PRES   REMARKS
FERGUS FALLS   CLEAR     57  19  23 SE3       30.16R
WHEATON        CLEAR     55  27  33 S3        30.17S
MORRIS         FAIR      55  25  30 S3        30.15S
ALEXANDRIA     PTCLDY    57  24  28 W6        30.17R
ELBOW LAKE     FAIR      55  41  58 E3        30.15S
WADENA         PTCLDY    57  28  33 W3        30.14F
GLENWOOD       PTCLDY    55  27  33 W5        30.16F
APPLETON       PTCLDY    52  28  40 CALM      30.16S
BENSON         PTCLDY    52  30  43 CALM      30.16S
ORTONVILLE     PTCLDY    55  27  33 CALM      30.16S
MADISON        PTCLDY    55  18  22 CALM      30.17S
WILLMAR        FAIR      55  28  35 W3        30.18R
$$
MNZ033>034-036-042>043-049>051-058-059-280400-
   Central Minnesota

CITY           SKY/WX    TMP DP  RH WIND       PRES   REMARKS
ST CLOUD       PTCLDY    52  31  44 SW3       30.14S
SAUK CENTRE    FAIR      52  31  44 CALM      30.16S
PAYNESVILLE    MOCLDY    47  29  51 SW3       30.16S
AITKIN         PTCLDY    48  28  46 CALM      30.12F
PINE RIVER     CLEAR     50  32  50 CALM      30.17S
BRAINERD       PTCLDY    50  36  58 CALM      30.14S
STAPLES        PTCLDY    55  27  33 CALM      30.15S
LONG PRAIRIE   FAIR      54  30  40 CALM      30.16R
LITTLE FALLS   PTCLDY    48  28  46 CALM      30.14S
LITCHFIELD     MOCLDY    54  30  40 W3        30.16S
BUFFALO        PTCLDY    52  33  49 CALM      30.16R
MAPLE LAKE     PTCLDY    50  33  50 CALM      30.16R
$$
MNZ037-044-045-052-053-280400-
   East Central Minnesota

CITY           SKY/WX    TMP DP  RH WIND       PRES   REMARKS
PRINCETON      PTCLDY    48  34  57 CALM      30.15R
MORA           PTCLDY    45  32  61 CALM      30.16R
CAMBRIDGE      PTCLDY    52  34  50 CALM      30.13R
RUSH CITY      FAIR      49  29  47 CALM      30.14R
MOOSE LAKE     CLEAR     50  28  43 CALM      30.13R
HINCKLEY       FAIR      46  32  57 CALM      30.13S
CLOQUET        PTCLDY    48  27  43 CALM      30.15R
MCGREGOR       CLEAR     48  28  46 CALM      30.14S
$$
MNZ071>073-080-081-089-090-097-098-280400-
   Southwest Minnesota

CITY           SKY/WX    TMP DP  RH WIND       PRES   REMARKS
MONTEVIDEO     PTCLDY    54  21  28 CALM      30.18R
GRANITE FALLS  MOCLDY    53  22  29 CALM      30.18S
CANBY          PTCLDY    50  32  50 SW3       30.19R
MARSHALL       PTCLDY    54  21  28 W3        30.17R
REDWOOD FALLS  MOCLDY    59  21  23 CALM      30.16R
OLIVIA         MOCLDY    52  23  32 CALM      30.16S
PIPESTONE      MOCLDY    55  27  33 NE3       30.18R
WINDOM         MOCLDY    50  25  37 CALM      30.17S
WORTHINGTON    PTCLDY    48  23  37 NW3       30.18R
JACKSON        PTCLDY    54  19  26 NW3       30.18R
TRACY          PTCLDY    55  23  29 CALM      30.17S
SLAYTON        PTCLDY    50  22  32 CALM      30.19R
$$
MNZ065>067-074>077-082>085-091>093-280400-
   South Central Minnesota

CITY           SKY/WX    TMP DP  RH WIND       PRES   REMARKS
MANKATO        PTCLDY    57  28  33 CALM      30.16R
NEW ULM        PTCLDY    50  25  37 NW5       30.16S
ST JAMES       PTCLDY    55  18  22 CALM      30.17S
FAIRMONT       PTCLDY    52  25  35 CALM      30.16R
GLENCOE        PTCLDY    54  29  38 CALM      30.15S
FARIBAULT      CLEAR     48  30  49 CALM      30.16R
OWATONNA       CLEAR     52  28  40 CALM      30.16R
WASECA         PTCLDY    50  28  43 CALM      30.17R
ALBERT LEA     FAIR      54  30  40 N3        30.16R
$$
MNZ078>079-086>088-094>096-280400-
   Southeast Minnesota

CITY           SKY/WX    TMP DP  RH WIND       PRES   REMARKS
ROCHESTER      CLEAR     53  30  41 NW8       30.16R
RED WING       CLEAR     48  32  53 NW3       30.13R
STANTON        CLEAR     47  29  51 S3        30.14R
DODGE CENTER   PTCLDY    55  27  33 N3        30.15S
WINONA         CLEAR     54  41  62 CALM      30.12S
AUSTIN         CLEAR     52  34  50 CALM      30.15R
PRESTON        CLEAR     53  31  42 N5        30.14S
$$
ABBREVIATIONS USED IN REMARKS
   TC - TEMPERATURES IN CELSIUS
  WCI - WIND CHILL INDEX
   HX - HEAT INDEX
  VSB - VISIBILITY
$$


USA.gov is the U.S. government's official web portal to all federal, state and local government web resources and services.